Location: ????????
(55.4717°N, 39.1821°E)
Time: 14:58:17
(UTC+00:00)

Lacrosse 4 Rocket - Pass Details

Date: 14 April 2024
Orbit: 518 x 574 km, 68.0° (Epoch: 24 April)

Event Time Altitude Azimuth Distance (km) Brightness Sun altitude
Exits shadow 00:10:49 12° 285° (WNW) 1,632 3.4 -16.3°
Maximum altitude 00:13:29 22° 333° (NNW) 1,180 3.2 -16.0°
Drops below altitude 10° 00:16:36 10° 26° (NNE) 1,762 5.1 -15.7°
Sets 00:19:09 0° 42° (NE) 2,653 6.7 -15.5°
